AUR8LG EGJB-EGKK

Flight info

Callsign AUR8LG
Flight time N/A
Altitude 19000
Route ORIST L982 VASUX
Aircraft AT76/M-SDFGIRY/S

Departure

Time 2026-04-26 18:21
Airport Guernsey Airport (EGJB)

Arrival

Time N/A
Airport London Gatwick Airport (EGKK)
Time Latitude Longitude Altitude Speed Heading
2026-04-26 17:54 49.43281 -2.59564 336 ft 0 kts 177°
2026-04-26 18:12 49.43292 -2.59564 336 ft 3 kts 177°
2026-04-26 18:12 49.43312 -2.59566 336 ft 3 kts 177°
2026-04-26 18:12 49.43332 -2.59568 336 ft 3 kts 177°
2026-04-26 18:13 49.43351 -2.59569 334 ft 2 kts 177°
2026-04-26 18:13 49.43355 -2.59570 335 ft 0 kts 177°
2026-04-26 18:15 49.43351 -2.59572 334 ft 1 kts 200°
2026-04-26 18:15 49.43344 -2.59603 334 ft 6 kts 273°
2026-04-26 18:15 49.43358 -2.59707 336 ft 13 kts 265°
2026-04-26 18:16 49.43344 -2.59859 336 ft 15 kts 268°
2026-04-26 18:16 49.43334 -2.60217 336 ft 18 kts 266°
2026-04-26 18:16 49.43330 -2.60408 335 ft 18 kts 268°
2026-04-26 18:17 49.43326 -2.60598 336 ft 18 kts 268°
2026-04-26 18:17 49.43347 -2.60777 336 ft 17 kts 280°
2026-04-26 18:17 49.43365 -2.60958 336 ft 17 kts 270°
2026-04-26 18:17 49.43359 -2.61147 336 ft 18 kts 268°
2026-04-26 18:18 49.43358 -2.61201 336 ft 0 kts 268°
2026-04-26 18:19 49.43361 -2.61247 336 ft 7 kts 288°
2026-04-26 18:19 49.43408 -2.61335 340 ft 19 kts 318°
2026-04-26 18:20 49.43461 -2.61349 345 ft 7 kts 39°
2026-04-26 18:20 49.43465 -2.61328 350 ft 0 kts 84°
2026-04-26 18:20 49.43470 -2.61207 344 ft 39 kts 87°
2026-04-26 18:21 49.43507 -2.60045 381 ft 117 kts 85°
2026-04-26 18:21 49.43598 -2.58799 1020 ft 113 kts 81°
2026-04-26 18:21 49.43706 -2.57041 1605 ft 142 kts 88°
2026-04-26 18:21 49.43723 -2.55946 1744 ft 162 kts 89°
2026-04-26 18:22 49.43733 -2.53470 1889 ft 187 kts 90°
2026-04-26 18:22 49.43736 -2.52067 1923 ft 201 kts 90°
2026-04-26 18:22 49.44053 -2.49956 2076 ft 209 kts 57°
2026-04-26 18:22 49.45180 -2.48614 2461 ft 206 kts 25°
2026-04-26 18:23 49.46519 -2.47869 2842 ft 204 kts 16°
2026-04-26 18:23 49.47891 -2.47318 3226 ft 203 kts 13°
2026-04-26 18:23 49.49255 -2.46843 3656 ft 199 kts 11°
2026-04-26 18:23 49.50607 -2.46404 4079 ft 198 kts 11°
2026-04-26 18:24 49.51943 -2.45963 4511 ft 196 kts 11°
2026-04-26 18:24 49.53263 -2.45491 4948 ft 194 kts 12°
2026-04-26 18:24 49.54567 -2.44998 5379 ft 192 kts 11°
2026-04-26 18:24 49.55859 -2.44498 5806 ft 191 kts 12°
2026-04-26 18:25 49.57142 -2.44000 6238 ft 190 kts 12°
2026-04-26 18:25 49.58416 -2.43503 6665 ft 188 kts 12°
2026-04-26 18:25 49.59664 -2.43012 7083 ft 187 kts 11°
2026-04-26 18:25 49.60920 -2.42520 7503 ft 185 kts 10°
2026-04-26 18:26 49.62164 -2.42047 7923 ft 184 kts 12°
2026-04-26 18:26 49.63398 -2.41585 8349 ft 182 kts 11°
2026-04-26 18:26 49.64621 -2.41127 8770 ft 181 kts 11°
2026-04-26 18:26 49.65848 -2.40675 9156 ft 182 kts 11°
2026-04-26 18:27 49.67082 -2.40223 9547 ft 182 kts 11°
2026-04-26 18:27 49.68318 -2.39763 9946 ft 183 kts 11°
2026-04-26 18:27 49.69568 -2.39284 10257 ft 187 kts 11°
2026-04-26 18:27 49.70743 -2.38452 10537 ft 191 kts 43°
2026-04-26 18:28 49.71639 -2.36879 10774 ft 199 kts 51°
2026-04-26 18:28 49.72504 -2.35167 11016 ft 205 kts 52°
2026-04-26 18:28 49.73393 -2.33400 11264 ft 211 kts 52°
2026-04-26 18:28 49.74313 -2.31605 11516 ft 215 kts 52°
2026-04-26 18:29 49.75272 -2.29804 11766 ft 218 kts 50°
2026-04-26 18:29 49.76261 -2.28001 12017 ft 221 kts 50°
2026-04-26 18:29 49.77262 -2.26177 12270 ft 224 kts 50°
2026-04-26 18:29 49.78276 -2.24329 12519 ft 226 kts 50°
2026-04-26 18:30 49.79297 -2.22468 12776 ft 228 kts 51°
2026-04-26 18:30 49.80327 -2.20593 13016 ft 230 kts 51°
2026-04-26 18:30 49.81374 -2.18677 13127 ft 237 kts 51°
2026-04-26 18:30 49.82456 -2.16694 13186 ft 245 kts 51°
2026-04-26 18:31 49.83574 -2.14647 13218 ft 252 kts 50°
2026-04-26 18:31 49.84722 -2.12545 13229 ft 258 kts 51°
2026-04-26 18:31 49.85895 -2.10403 13232 ft 263 kts 51°
2026-04-26 18:31 49.87087 -2.08226 13235 ft 266 kts 50°
2026-04-26 18:32 49.88288 -2.06019 13238 ft 269 kts 51°
2026-04-26 18:32 49.89498 -2.03792 13238 ft 271 kts 51°
2026-04-26 18:32 49.90718 -2.01554 13238 ft 273 kts 51°
2026-04-26 18:32 49.91941 -1.99302 13239 ft 274 kts 51°
2026-04-26 18:33 49.93169 -1.97042 13239 ft 274 kts 51°
2026-04-26 18:33 49.94385 -1.94803 13241 ft 275 kts 51°
2026-04-26 18:33 49.95617 -1.92528 13245 ft 275 kts 50°
2026-04-26 18:33 49.96855 -1.90249 13243 ft 276 kts 50°
2026-04-26 18:34 49.98093 -1.87969 13245 ft 276 kts 50°
2026-04-26 18:34 49.99328 -1.85682 13245 ft 276 kts 51°
2026-04-26 18:34 50.00717 -1.83658 13243 ft 273 kts 31°
2026-04-26 18:34 50.02327 -1.82118 13245 ft 272 kts 32°
2026-04-26 18:35 50.03903 -1.80465 13249 ft 274 kts 34°
2026-04-26 18:35 50.05477 -1.78785 13250 ft 275 kts 34°
2026-04-26 18:35 50.07058 -1.77108 13249 ft 275 kts 34°
2026-04-26 18:35 50.08645 -1.75431 13249 ft 276 kts 34°
2026-04-26 18:36 50.10234 -1.73751 13249 ft 276 kts 34°
2026-04-26 18:36 50.11824 -1.72067 13251 ft 276 kts 34°
2026-04-26 18:36 50.13413 -1.70376 13251 ft 277 kts 34°
2026-04-26 18:36 50.15005 -1.68683 13251 ft 277 kts 34°
2026-04-26 18:37 50.16595 -1.66992 13256 ft 277 kts 34°
2026-04-26 18:37 50.18187 -1.65299 13255 ft 277 kts 34°
2026-04-26 18:37 50.19776 -1.63602 13257 ft 277 kts 33°
2026-04-26 18:37 50.21370 -1.61905 13255 ft 277 kts 33°
2026-04-26 18:38 50.22963 -1.60208 13259 ft 277 kts 33°
2026-04-26 18:38 50.24557 -1.58509 13257 ft 277 kts 34°
2026-04-26 18:38 50.26150 -1.56808 13258 ft 277 kts 34°
2026-04-26 18:38 50.27716 -1.55052 13257 ft 277 kts 38°
2026-04-26 18:39 50.29180 -1.53097 13259 ft 278 kts 41°
2026-04-26 18:39 50.30626 -1.51093 13259 ft 278 kts 41°
2026-04-26 18:39 50.32067 -1.49136 13260 ft 278 kts 40°
2026-04-26 18:39 50.33551 -1.47202 13260 ft 277 kts 39°
2026-04-26 18:40 50.35037 -1.45273 13263 ft 278 kts 39°
2026-04-26 18:40 50.36523 -1.43341 13262 ft 278 kts 39°
2026-04-26 18:40 50.38008 -1.41414 13263 ft 278 kts 39°
2026-04-26 18:40 50.39493 -1.39479 13263 ft 278 kts 39°
2026-04-26 18:41 50.40981 -1.37548 13257 ft 278 kts 39°
2026-04-26 18:41 50.42476 -1.35633 13262 ft 278 kts 39°
2026-04-26 18:41 50.43977 -1.33717 13263 ft 278 kts 39°
2026-04-26 18:41 50.45480 -1.31799 13262 ft 279 kts 38°
2026-04-26 18:42 50.46984 -1.29880 13265 ft 279 kts 38°
2026-04-26 18:42 50.48488 -1.27962 13262 ft 279 kts 39°
2026-04-26 18:42 50.49995 -1.26039 13262 ft 279 kts 38°
2026-04-26 18:42 50.51500 -1.24117 13263 ft 279 kts 38°
2026-04-26 18:43 50.53008 -1.22192 13263 ft 279 kts 38°
2026-04-26 18:43 50.54514 -1.20269 13261 ft 279 kts 38°
2026-04-26 18:43 50.56022 -1.18343 13261 ft 279 kts 39°
2026-04-26 18:43 50.57529 -1.16417 13260 ft 279 kts 38°
2026-04-26 18:44 50.59036 -1.14489 13260 ft 279 kts 38°
2026-04-26 18:44 50.60542 -1.12562 13262 ft 279 kts 39°
2026-04-26 18:44 50.62049 -1.10633 13263 ft 279 kts 38°
2026-04-26 18:44 50.63556 -1.08702 13262 ft 279 kts 39°
2026-04-26 18:45 50.65062 -1.06771 13264 ft 279 kts 38°
2026-04-26 18:45 50.66567 -1.04830 13262 ft 279 kts 38°
2026-04-26 18:45 50.68069 -1.02890 13261 ft 279 kts 39°
2026-04-26 18:45 50.69573 -1.00947 13261 ft 279 kts 39°
2026-04-26 18:46 50.71076 -0.99003 13265 ft 279 kts 39°
2026-04-26 18:46 50.72578 -0.97058 13264 ft 278 kts 39°
2026-04-26 18:46 50.73771 -0.94721 13262 ft 275 kts 66°
2026-04-26 18:46 50.74444 -0.91941 13262 ft 276 kts 71°
2026-04-26 18:47 50.75130 -0.89059 13257 ft 278 kts 67°
2026-04-26 18:47 50.75960 -0.86308 13259 ft 278 kts 63°
2026-04-26 18:47 50.76914 -0.83698 13259 ft 268 kts 57°
2026-04-26 18:47 50.77982 -0.81346 13258 ft 260 kts 51°
2026-04-26 18:48 50.79134 -0.79142 13264 ft 260 kts 49°
2026-04-26 18:48 50.80284 -0.76981 13264 ft 261 kts 49°
2026-04-26 18:48 50.81237 -0.74595 13265 ft 258 kts 70°
2026-04-26 18:48 50.81683 -0.71845 13265 ft 260 kts 81°
2026-04-26 18:49 50.81967 -0.69013 13230 ft 262 kts 83°
2026-04-26 18:49 50.82231 -0.66107 12997 ft 271 kts 83°
2026-04-26 18:49 50.82527 -0.63128 12762 ft 277 kts 81°
2026-04-26 18:49 50.82872 -0.60105 12524 ft 282 kts 80°
2026-04-26 18:50 50.83234 -0.57044 12289 ft 285 kts 80°
2026-04-26 18:50 50.83592 -0.53949 11981 ft 289 kts 80°
2026-04-26 18:50 50.83958 -0.50795 11605 ft 294 kts 80°
2026-04-26 18:50 50.84324 -0.47602 11234 ft 294 kts 80°
2026-04-26 18:51 50.84690 -0.44443 10827 ft 290 kts 80°
2026-04-26 18:51 50.85048 -0.41312 10415 ft 288 kts 80°
2026-04-26 18:51 50.85403 -0.38211 9993 ft 286 kts 80°
2026-04-26 18:51 50.85755 -0.35126 9539 ft 284 kts 80°
2026-04-26 18:52 50.86102 -0.32067 9097 ft 282 kts 80°
2026-04-26 18:52 50.86450 -0.29021 8602 ft 282 kts 80°
2026-04-26 18:52 50.86795 -0.25965 8106 ft 282 kts 80°
2026-04-26 18:52 50.87134 -0.22963 7809 ft 272 kts 80°
2026-04-26 18:53 50.87655 -0.20175 7478 ft 262 kts 60°
2026-04-26 18:53 50.88947 -0.18269 7338 ft 250 kts 26°
2026-04-26 18:53 50.90520 -0.17295 7124 ft 240 kts 19°
2026-04-26 18:53 50.92088 -0.16464 6803 ft 238 kts 18°
2026-04-26 18:54 50.93678 -0.15678 6470 ft 240 kts 17°
2026-04-26 18:54 50.95292 -0.14926 6050 ft 243 kts 14°
2026-04-26 18:54 50.96967 -0.15038 5586 ft 247 kts 340°
2026-04-26 18:54 50.98374 -0.16577 5129 ft 247 kts 317°
2026-04-26 18:55 50.99644 -0.18451 4616 ft 252 kts 317°
2026-04-26 18:55 51.00917 -0.20390 4110 ft 255 kts 317°
2026-04-26 18:55 51.02180 -0.22370 3709 ft 253 kts 316°
2026-04-26 18:55 51.03391 -0.24316 3512 ft 243 kts 316°
2026-04-26 18:56 51.04508 -0.26272 3306 ft 236 kts 307°
2026-04-26 18:56 51.05362 -0.28419 3134 ft 228 kts 300°
2026-04-26 18:56 51.05813 -0.30772 3054 ft 219 kts 282°
2026-04-26 18:56 51.06099 -0.33057 3024 ft 196 kts 282°
2026-04-26 18:57 51.06286 -0.35011 3004 ft 166 kts 275°
2026-04-26 18:57 51.06324 -0.36205 2994 ft 154 kts 267°
2026-04-26 18:57 51.06133 -0.38447 2995 ft 160 kts 261°
2026-04-26 18:57 51.05956 -0.40238 2993 ft 168 kts 261°
2026-04-26 18:58 51.05770 -0.42108 2996 ft 175 kts 261°
2026-04-26 18:58 51.05576 -0.44047 3004 ft 180 kts 261°
2026-04-26 18:58 51.05375 -0.46035 3000 ft 184 kts 261°
2026-04-26 18:58 51.05170 -0.48064 2999 ft 187 kts 261°
2026-04-26 18:59 51.05156 -0.50094 2991 ft 184 kts 285°
2026-04-26 18:59 51.05473 -0.52068 2996 ft 186 kts 284°
2026-04-26 18:59 51.05783 -0.54082 2992 ft 188 kts 285°
2026-04-26 18:59 51.06310 -0.55919 2994 ft 183 kts 318°
2026-04-26 19:00 51.07421 -0.56603 2996 ft 170 kts
2026-04-26 19:00 51.08534 -0.56177 2996 ft 162 kts 18°
2026-04-26 19:00 51.09582 -0.55601 2988 ft 156 kts 34°
2026-04-26 19:00 51.10106 -0.54195 2983 ft 150 kts 80°
2026-04-26 19:01 51.10279 -0.52563 2989 ft 151 kts 81°
2026-04-26 19:01 51.10439 -0.50894 2989 ft 153 kts 82°
2026-04-26 19:01 51.10588 -0.49226 2993 ft 153 kts 81°
2026-04-26 19:01 51.10765 -0.47558 2991 ft 152 kts 79°
2026-04-26 19:02 51.10993 -0.45928 2990 ft 150 kts 76°
2026-04-26 19:02 51.11251 -0.44333 2984 ft 148 kts 75°
2026-04-26 19:02 51.11508 -0.42760 2983 ft 147 kts 76°
2026-04-26 19:02 51.11669 -0.41686 2867 ft 154 kts 77°
2026-04-26 19:03 51.11970 -0.39479 2623 ft 147 kts 78°
2026-04-26 19:03 51.12169 -0.37991 2448 ft 127 kts 78°
2026-04-26 19:03 51.12352 -0.36700 2279 ft 112 kts 78°
2026-04-26 19:03 51.12517 -0.35553 2143 ft 104 kts 78°
2026-04-26 19:04 51.12679 -0.34411 1988 ft 107 kts 78°
2026-04-26 19:04 51.12838 -0.33252 1850 ft 107 kts 79°
2026-04-26 19:04 51.12995 -0.32080 1702 ft 109 kts 79°
2026-04-26 19:04 51.13155 -0.30909 1557 ft 111 kts 79°
2026-04-26 19:05 51.13494 -0.28522 1258 ft 105 kts 79°
2026-04-26 19:05 51.13657 -0.27352 1111 ft 111 kts 79°
2026-04-26 19:05 51.13812 -0.26198 969 ft 102 kts 79°
2026-04-26 19:06 51.13928 -0.25138 851 ft 97 kts 77°
2026-04-26 19:06 51.14119 -0.24049 704 ft 101 kts 77°
2026-04-26 19:06 51.14282 -0.22942 757 ft 110 kts 75°
2026-04-26 19:06 51.14585 -0.21851 1301 ft 120 kts 58°
2026-04-26 19:07 51.15022 -0.20565 1657 ft 144 kts 76°
2026-04-26 19:07 51.15304 -0.18918 2240 ft 158 kts 74°